Location: Tel Aviv
(32.0670°N, 34.7670°E)
Time: 08:51:32
(UTC+02:00)

Vanguard 1 Rocket - Pass Details

Date: 19 July 2025
Orbit: 652 x 4216 km, 34.3° (Epoch: 5 February)

Event Time Altitude Azimuth Distance (km) Brightness Sun altitude
Rises 00:42:06 0° 281° (WNW) 5,469 11.5 -37.1°
Reaches altitude 10° 00:46:29 10° 282° (WNW) 3,909 10.7 -37.1°
Enters shadow 00:51:38 32° 284° (WNW) 2,020 9.1 -37.1°
